This is the latest recevied weather packets stored in our database for station/object LU9FW-5. If no packets are shown the sender has not sent any weather packets the latest 1 day(s).
| Time | Temp. | Humidity | Pressure | Rain* | Wind** | Luminosity | Snow |
|---|---|---|---|---|---|---|---|
| 1778146673 | 16.11° C | 80% | 998.9 hPa | 0 mm | - | - | - |
| 1778146335 | 16.11° C | 84% | 999 hPa | 1.27 mm | - | - | - |
| 1778145963 | 16.67° C | 85% | 999.4 hPa | 1.27 mm | - | - | - |
| 1778145676 | 16.67° C | 87% | 999.1 hPa | 1.27 mm | - | - | - |
| 1778145474 | 16.67° C | 90% | 999.1 hPa | 1.27 mm | - | - | - |
| 1778145397 | 17.22° C | 90% | 999.1 hPa | 1.27 mm | - | - | - |
| 1778145265 | 17.22° C | 91% | 999.1 hPa | 1.27 mm | - | - | - |
| 1778144983 | 17.22° C | 93% | 999.6 hPa | 1.27 mm | - | - | - |
| 1778144913 | 17.22° C | 93% | 999.7 hPa | 1.27 mm | - | - | - |
| 1778144695 | 17.22° C | 94% | 999.7 hPa | 1.27 mm | - | - | - |
| 1778144549 | 17.22° C | 94% | 999.6 hPa | 1.27 mm | - | - | - |
| 1778144495 | 17.22° C | 94% | 999.7 hPa | 1.27 mm | - | - | - |
| 1778144412 | 17.22° C | 94% | 999.6 hPa | 1.27 mm | - | - | - |
| 1778144352 | 17.22° C | 94% | 999.4 hPa | 1.27 mm | - | - | - |
| 1778144134 | 17.22° C | 95% | 999 hPa | 1.27 mm | - | - | - |
| 1778144064 | 17.22° C | 95% | 999 hPa | 1.27 mm | - | - | - |
| 1778143988 | 17.22° C | 95% | 998.9 hPa | 1.27 mm | - | - | - |
| 1778143923 | 17.22° C | 94% | 998.7 hPa | 1.27 mm | - | - | - |
| 1778143702 | 17.22° C | 94% | 999 hPa | 1.02 mm | - | - | - |
| 1778143570 | 17.22° C | 94% | 999.2 hPa | 1.02 mm | - | - | - |
| 1778143421 | 17.22° C | 93% | 999.3 hPa | 0.51 mm | - | - | - |
| 1778143359 | 17.22° C | 93% | 999.6 hPa | 0.25 mm | - | - | - |
| 1778143225 | 17.22° C | 93% | 999.8 hPa | 0 mm | - | - | - |
| 1778143139 | 17.22° C | 92% | 1000 hPa | 0 mm | - | - | - |
| 1778143071 | 17.22° C | 93% | 1000.5 hPa | 0 mm | - | - | - |
* Rain latest hour (hover to see other rain measurements)
** Current wind speed in m/s (hover to see current wind gust speed)